Location: ????
(30.1475°N, 31.1342°E)
Time: 01:57:53
(UTC+00:00)

ARIANE 5 R/B - Pass Details

Date: 02 April 2023
Orbit: 748 x 794 km, 98.8° (Epoch: 29 May)

Event Time Altitude Azimuth Distance (km) Brightness Sun altitude
Rises 02:11:14 0° 10° (N) 3,285 6.2 -20.5°
Reaches altitude 10° 02:13:33 10° 9° (N) 2,357 5.4 -20.0°
Maximum altitude 02:18:45 75° 285° (WNW) 821 2.5 -18.9°
Enters shadow 02:23:10 15° 201° (SSW) 2,052 4.4 -18.0°
